Terminal Aerodrome Forecast
Issued by NWS

Home | Current Version | Previous Version | Text Only | Print | Product List | Glossary On
Versions: 1 2 3 4 5 6 7 8 9 10 11 12
820
FTUS42 TJSJ 270540
TAFISX
TAF
TISX 270540Z 2706/2806 06008KT P6SM SCT025
     FM271300 11012KT P6SM SCT030
     FM272300 06008KT P6SM SCT025=

USA.gov is the U.S. government's official web portal to all federal, state and local government web resources and services.